This demonstration page uses our WeatherBlox Daily Observations layout. Learn more.

Left ArrowRight Arrow

36.17497, -115.13722

Hourly Observations for May 17, 2017

Temp ( °F °C ) Dew Point ( °F °C ) Humidity (%) Winds ( mph kmh ) Pressure ( in mb ) Visibility ( mi km ) Precip ( " mm )
12:53 am 00:53 Clear 67 19.4 34 1.1 30 30 S 13 20 29.70 1006 10 16 0.00 0.00
1:53 am 01:53 Clear 65 18.3 34 1.1 32 32 SSE 15 24 29.69 1006 10 16 0.00 0.00
2:53 am 02:53 Clear 64 17.8 35 1.7 34 34 S 15 24 29.68 1005 10 16 0.00 0.00
3:53 am 03:53 Clear 63 17.2 35 1.7 35 35 S 8 13 29.68 1005 10 16 0.00 0.00
4:53 am 04:53 Clear 63 17.2 36 2.2 37 37 SSW 8 13 29.68 1005 10 16 0.00 0.00
5:53 am 05:53 Sunny 61 16.1 36 2.2 39 39 SW 3 6 29.70 1006 10 16 0.00 0.00
6:53 am 06:53 Sunny 62 16.7 36 2.2 38 38 Calm 29.72 1006 10 16 0.00 0.00
7:53 am 07:53 Sunny 65 18.3 37 2.8 36 36 N 9 15 29.75 1007 10 16 0.00 0.00
8:53 am 08:53 Sunny 67 19.4 36 2.2 32 32 VRB 5 7 29.76 1008 10 16 0.00 0.00
9:53 am 09:53 Sunny 73 22.8 35 1.7 25 25 NNW 15 24 29.74 1007 10 16 0.00 0.00
10:12 am 10:12 Sunny 74 23.3 33 0.6 22 22 NNW 17 28 29.62 1003 10 16 0.00 0.00
10:53 am 10:53 Mostly Sunny 75 23.9 33 0.6 22 22 NNW 21 33 29.72 1007 10 16 0.00 0.00
11:53 am 11:53 Sunny 76 24.4 32 0 20 20 NW 15 24 29.72 1006 10 16 0.00 0.00
12:53 pm 12:53 Mostly Sunny 76 24.4 31 -0.6 19 19 N 15 24 29.71 1006 10 16 0.00 0.00
1:53 pm 13:53 Mostly Cloudy 75 23.9 31 -0.6 20 20 NNW 13 20 29.70 1006 10 16 0.00 0.00
2:53 pm 14:53 Cloudy 75 23.9 27 -2.8 17 17 N 7 11 29.68 1005 10 16 0.00 0.00
3:53 pm 15:53 Mostly Cloudy 77 25 9 -12.8 7 7 N 26 43 29.65 1004 10 16 0.00 0.00
4:53 pm 16:53 Sunny 78 25.6 6 -14.4 6 6 NNW 33 54 29.66 1004 10 16 0.00 0.00
5:53 pm 17:53 Sunny 76 24.4 11 -11.7 8 8 N 22 35 29.70 1006 10 16 0.00 0.00
6:53 pm 18:53 Sunny 73 22.8 6 -14.4 7 7 NNW 26 43 29.74 1007 10 16 0.00 0.00
7:53 pm 19:53 Clear 69 20.6 7 -13.9 9 9 NNW 15 24 29.78 1008 10 16 0.00 0.00
8:53 pm 20:53 Clear 68 20 10 -12.2 10 10 NNW 17 28 29.78 1009 10 16 0.00 0.00
9:53 pm 21:53 Clear 67 19.4 12 -11.1 12 12 N 12 19 29.82 1010 10 16 0.00 0.00
10:53 pm 22:53 Clear 62 16.7 19 -7.2 19 19 NNE 10 17 29.85 1011 10 16 0.00 0.00
11:53 pm 23:53 Clear 62 16.7 17 -8.3 17 17 ENE 7 11 29.88 1012 10 16 0.00 0.00

Powered by AerisWeather